TimeCST,TemperatureF,Dew PointF,Humidity,Sea Level PressureIn,VisibilityMPH,Wind Direction,Wind SpeedMPH,Gust SpeedMPH,PrecipitationIn,Events,Conditions,WindDirDegrees,DateUTC
12:15 AM,28.4,24.8,86,29.87,10.0,South,13.8,-,N/A,,Clear,180,2013-02-26 06:15:00
12:35 AM,28.4,24.8,86,29.87,10.0,South,11.5,-,N/A,,Clear,180,2013-02-26 06:35:00
12:55 AM,26.6,24.8,93,29.87,10.0,South,11.5,-,N/A,,Clear,190,2013-02-26 06:55:00
1:15 AM,26.6,24.8,93,29.87,10.0,South,10.4,-,N/A,,Clear,190,2013-02-26 07:15:00
1:35 AM,26.6,24.8,93,29.87,10.0,South,11.5,-,N/A,,Clear,190,2013-02-26 07:35:00
1:55 AM,26.6,24.8,93,29.87,10.0,South,13.8,-,N/A,,Clear,190,2013-02-26 07:55:00
2:15 AM,26.6,23.0,86,29.87,10.0,South,13.8,-,N/A,,Clear,190,2013-02-26 08:15:00
2:35 AM,26.6,23.0,86,29.87,10.0,South,11.5,-,N/A,,Clear,190,2013-02-26 08:35:00
2:55 AM,26.6,23.0,86,29.87,10.0,South,9.2,-,N/A,,Clear,180,2013-02-26 08:55:00
3:15 AM,24.8,23.0,93,29.87,10.0,South,6.9,-,N/A,,Clear,170,2013-02-26 09:15:00
3:35 AM,24.8,21.2,86,29.87,10.0,South,8.1,-,N/A,,Clear,180,2013-02-26 09:35:00
3:55 AM,23.0,21.2,93,29.86,10.0,South,9.2,-,N/A,,Clear,170,2013-02-26 09:55:00
4:15 AM,23.0,19.4,86,29.86,10.0,South,9.2,-,N/A,,Clear,180,2013-02-26 10:15:00
4:35 AM,23.0,19.4,86,29.87,10.0,SSE,6.9,-,N/A,,Clear,160,2013-02-26 10:35:00
4:55 AM,23.0,19.4,86,29.88,10.0,SSE,12.7,-,N/A,,Clear,160,2013-02-26 10:55:00
5:15 AM,23.0,19.4,86,29.88,10.0,SSE,8.1,-,N/A,,Clear,160,2013-02-26 11:15:00
5:35 AM,23.0,17.6,80,29.88,10.0,South,10.4,-,N/A,,Clear,180,2013-02-26 11:35:00
5:55 AM,23.0,19.4,86,29.88,10.0,South,10.4,-,N/A,,Clear,190,2013-02-26 11:55:00
6:15 AM,23.0,19.4,86,29.89,10.0,South,8.1,-,N/A,,Clear,170,2013-02-26 12:15:00
6:35 AM,21.2,19.4,93,29.90,10.0,SSE,6.9,-,N/A,,Clear,160,2013-02-26 12:35:00
6:55 AM,21.2,19.4,93,29.89,10.0,South,6.9,-,N/A,,Clear,170,2013-02-26 12:55:00
7:15 AM,21.2,19.4,93,29.90,10.0,South,4.6,-,N/A,,Clear,180,2013-02-26 13:15:00
7:35 AM,19.4,17.6,93,29.90,10.0,Calm,Calm,-,N/A,,Clear,0,2013-02-26 13:35:00
7:55 AM,23.0,19.4,86,29.90,10.0,SSW,4.6,-,N/A,,Clear,210,2013-02-26 13:55:00
8:15 AM,21.2,19.4,93,29.90,10.0,South,5.8,-,N/A,,Clear,190,2013-02-26 14:15:00
8:35 AM,24.8,19.4,80,29.90,10.0,South,4.6,-,N/A,,Clear,190,2013-02-26 14:35:00
8:55 AM,24.8,19.4,80,29.91,10.0,South,5.8,-,N/A,,Clear,190,2013-02-26 14:55:00
9:15 AM,26.6,21.2,80,29.91,10.0,South,5.8,-,N/A,,Clear,190,2013-02-26 15:15:00
9:35 AM,28.4,21.2,74,29.92,10.0,SSW,6.9,-,N/A,,Clear,200,2013-02-26 15:35:00
9:55 AM,28.4,21.2,74,29.92,10.0,SW,6.9,-,N/A,,Clear,220,2013-02-26 15:55:00
10:15 AM,30.2,21.2,69,29.91,10.0,SW,4.6,-,N/A,,Clear,220,2013-02-26 16:15:00
10:35 AM,32.0,21.2,64,29.91,10.0,South,4.6,-,N/A,,Clear,180,2013-02-26 16:35:00
10:55 AM,32.0,23.0,69,29.92,10.0,South,3.5,-,N/A,,Clear,170,2013-02-26 16:55:00
11:15 AM,32.0,23.0,69,29.93,10.0,SSE,4.6,-,N/A,,Clear,150,2013-02-26 17:15:00
11:35 AM,33.8,23.0,65,29.93,10.0,South,6.9,-,N/A,,Clear,180,2013-02-26 17:35:00
12:15 PM,35.6,24.8,65,29.94,10.0,South,6.9,-,N/A,,Clear,170,2013-02-26 18:15:00
12:35 PM,35.6,24.8,65,29.94,10.0,South,5.8,-,N/A,,Clear,190,2013-02-26 18:35:00
12:55 PM,35.6,24.8,65,29.94,10.0,South,5.8,-,N/A,,Clear,170,2013-02-26 18:55:00
1:15 PM,37.4,26.6,65,29.94,10.0,South,6.9,-,N/A,,Clear,170,2013-02-26 19:15:00
1:35 PM,37.4,26.6,65,29.94,10.0,South,5.8,-,N/A,,Partly Cloudy,180,2013-02-26 19:35:00
1:55 PM,37.4,28.4,70,29.94,10.0,South,6.9,-,N/A,,Mostly Cloudy,170,2013-02-26 19:55:00
2:15 PM,37.4,28.4,70,29.94,10.0,South,4.6,-,N/A,,Overcast,180,2013-02-26 20:15:00
2:35 PM,39.2,26.6,61,29.94,10.0,South,3.5,-,N/A,,Overcast,180,2013-02-26 20:35:00
2:55 PM,39.2,26.6,61,29.94,10.0,South,3.5,-,N/A,,Overcast,190,2013-02-26 20:55:00
3:15 PM,39.2,26.6,61,29.94,10.0,Calm,Calm,-,N/A,,Overcast,0,2013-02-26 21:15:00
3:35 PM,39.2,26.6,61,29.94,10.0,South,3.5,-,N/A,,Overcast,190,2013-02-26 21:35:00
3:55 PM,41.0,28.4,61,29.95,10.0,South,3.5,-,N/A,,Overcast,170,2013-02-26 21:55:00
4:15 PM,39.2,26.6,61,29.96,10.0,Calm,Calm,-,N/A,,Mostly Cloudy,0,2013-02-26 22:15:00
4:35 PM,39.2,26.6,61,29.96,10.0,Calm,Calm,-,N/A,,Partly Cloudy,0,2013-02-26 22:35:00
4:55 PM,41.0,26.6,57,29.97,10.0,Calm,Calm,-,N/A,,Clear,0,2013-02-26 22:55:00
5:15 PM,41.0,28.4,61,29.97,10.0,NW,3.5,-,N/A,,Clear,310,2013-02-26 23:15:00
5:35 PM,39.2,28.4,65,29.98,10.0,NW,5.8,-,N/A,,Clear,310,2013-02-26 23:35:00
5:55 PM,37.4,32.0,81,29.98,10.0,NW,4.6,-,N/A,,Clear,320,2013-02-26 23:55:00
6:15 PM,35.6,28.4,75,29.99,10.0,NW,8.1,-,N/A,,Clear,310,2013-02-27 00:15:00
6:35 PM,33.8,30.2,87,30.00,10.0,NW,9.2,-,N/A,,Clear,320,2013-02-27 00:35:00
6:55 PM,32.0,30.2,93,30.01,10.0,NNW,9.2,-,N/A,,Partly Cloudy,330,2013-02-27 00:55:00
7:15 PM,32.0,30.2,93,30.01,10.0,NNW,12.7,-,N/A,,Partly Cloudy,340,2013-02-27 01:15:00
7:35 PM,32.0,30.2,93,30.02,10.0,NNW,15.0,-,N/A,,Scattered Clouds,340,2013-02-27 01:35:00
7:55 PM,32.0,30.2,93,30.04,10.0,NNW,17.3,21.9,N/A,,Partly Cloudy,330,2013-02-27 01:55:00
8:15 PM,32.0,32.0,100,30.04,10.0,NW,15.0,-,N/A,,Mostly Cloudy,320,2013-02-27 02:15:00
8:35 PM,32.0,32.0,100,30.06,10.0,NNW,18.4,23.0,N/A,,Overcast,330,2013-02-27 02:35:00
8:55 PM,32.0,32.0,100,30.07,10.0,NNW,13.8,-,N/A,,Overcast,330,2013-02-27 02:55:00
9:15 PM,32.0,32.0,100,30.07,10.0,NNW,15.0,-,N/A,,Overcast,340,2013-02-27 03:15:00
9:35 PM,32.0,32.0,100,30.08,10.0,NNW,10.4,19.6,N/A,,Overcast,340,2013-02-27 03:35:00
9:55 PM,32.0,32.0,100,30.09,10.0,NNW,8.1,-,N/A,,Overcast,340,2013-02-27 03:55:00
10:15 PM,32.0,32.0,100,30.08,10.0,North,10.4,-,N/A,,Overcast,350,2013-02-27 04:15:00
10:35 PM,32.0,32.0,100,30.08,10.0,NNW,11.5,-,N/A,,Overcast,330,2013-02-27 04:35:00
10:55 PM,32.0,32.0,100,30.08,10.0,NNW,11.5,-,N/A,,Overcast,330,2013-02-27 04:55:00
11:15 PM,32.0,32.0,100,30.08,10.0,NNW,11.5,-,N/A,,Overcast,340,2013-02-27 05:15:00
11:35 PM,32.0,32.0,100,30.09,10.0,NNW,12.7,-,N/A,,Overcast,330,2013-02-27 05:35:00
11:55 PM,32.0,32.0,100,30.09,10.0,North,17.3,-,N/A,,Overcast,350,2013-02-27 05:55:00